Time,TemperatureF,DewpointF,PressureIn,WindDirection,WindDirectionDegrees,WindSpeedMPH,WindSpeedGustMPH,Humidity,HourlyPrecipIn,Conditions,Clouds,dailyrainin,SolarRadiationWatts/m^2,SoftwareType,DateUTC
2013-09-10 00:01:00,51.0,48.1,30.12,WSW,255,0.0,0.0,90,0.00,,,0.00,0.0,WUHU216DAVISVP2,2013-09-10 04:01:00,
2013-09-10 00:06:00,50.9,48.3,30.12,WSW,255,0.0,0.0,91,0.00,,,0.00,0.0,WUHU216DAVISVP2,2013-09-10 04:06:00,
2013-09-10 00:11:00,50.8,48.2,30.12,WSW,255,0.0,0.0,91,0.00,,,0.00,0.0,WUHU216DAVISVP2,2013-09-10 04:11:00,
2013-09-10 00:16:00,50.7,48.1,30.12,WSW,255,0.0,1.0,91,0.00,,,0.00,0.0,WUHU216DAVISVP2,2013-09-10 04:16:00,
2013-09-10 00:21:00,50.6,48.0,30.13,WSW,255,0.0,1.0,91,0.00,,,0.00,0.0,WUHU216DAVISVP2,2013-09-10 04:21:00,
2013-09-10 00:26:00,50.6,48.0,30.13,WSW,255,0.0,1.0,91,0.00,,,0.00,0.0,WUHU216DAVISVP2,2013-09-10 04:26:00,
2013-09-10 00:31:00,50.6,48.0,30.13,WSW,255,0.0,1.0,91,0.00,,,0.00,0.0,WUHU216DAVISVP2,2013-09-10 04:31:00,
2013-09-10 00:36:00,50.4,47.8,30.12,WSW,255,0.0,1.0,91,0.00,,,0.00,0.0,WUHU216DAVISVP2,2013-09-10 04:36:00,
2013-09-10 00:41:00,50.3,48.0,30.13,WSW,255,0.0,1.0,92,0.00,,,0.00,0.0,WUHU216DAVISVP2,2013-09-10 04:41:00,
2013-09-10 00:46:00,49.9,47.3,30.13,WSW,255,0.0,1.0,91,0.00,,,0.00,0.0,WUHU216DAVISVP2,2013-09-10 04:46:00,
2013-09-10 00:51:00,49.7,47.5,30.13,WSW,255,0.0,1.0,92,0.00,,,0.00,0.0,WUHU216DAVISVP2,2013-09-10 04:51:00,
2013-09-10 00:56:00,49.7,47.5,30.13,WSW,255,0.0,1.0,92,0.00,,,0.00,0.0,WUHU216DAVISVP2,2013-09-10 04:56:00,
2013-09-10 01:01:00,49.6,47.4,30.13,WSW,255,0.0,0.0,92,0.00,,,0.00,0.0,WUHU216DAVISVP2,2013-09-10 05:01:00,
2013-09-10 01:06:00,49.7,47.5,30.13,WSW,255,1.0,1.0,92,0.00,,,0.00,0.0,WUHU216DAVISVP2,2013-09-10 05:06:00,
2013-09-10 01:11:00,49.5,47.2,30.13,WSW,255,0.0,2.0,92,0.00,,,0.00,0.0,WUHU216DAVISVP2,2013-09-10 05:11:00,
2013-09-10 01:16:00,49.5,47.2,30.13,WSW,255,0.0,2.0,92,0.00,,,0.00,0.0,WUHU216DAVISVP2,2013-09-10 05:16:00,
2013-09-10 01:21:00,49.5,47.2,30.13,WSW,255,0.0,2.0,92,0.00,,,0.00,0.0,WUHU216DAVISVP2,2013-09-10 05:21:00,
2013-09-10 01:26:00,49.6,47.3,30.13,WSW,255,0.0,1.0,92,0.00,,,0.00,0.0,WUHU216DAVISVP2,2013-09-10 05:26:00,
2013-09-10 01:31:00,49.8,47.5,30.14,WSW,255,0.0,1.0,92,0.00,,,0.00,0.0,WUHU216DAVISVP2,2013-09-10 05:31:00,
2013-09-10 01:36:00,49.9,47.6,30.13,WSW,255,0.0,1.0,92,0.00,,,0.00,0.0,WUHU216DAVISVP2,2013-09-10 05:36:00,
2013-09-10 01:41:00,50.0,47.7,30.13,WSW,255,0.0,1.0,92,0.00,,,0.00,0.0,WUHU216DAVISVP2,2013-09-10 05:41:00,
2013-09-10 01:46:00,50.1,47.8,30.13,WSW,255,0.0,1.0,92,0.00,,,0.00,0.0,WUHU216DAVISVP2,2013-09-10 05:46:00,
2013-09-10 01:51:00,50.2,47.9,30.14,WSW,255,0.0,1.0,92,0.00,,,0.00,0.0,WUHU216DAVISVP2,2013-09-10 05:51:00,
2013-09-10 01:56:00,50.3,48.0,30.13,WSW,255,0.0,1.0,92,0.00,,,0.00,0.0,WUHU216DAVISVP2,2013-09-10 05:56:00,
2013-09-10 02:01:00,50.5,48.2,30.13,WSW,255,0.0,1.0,92,0.00,,,0.00,0.0,WUHU216DAVISVP2,2013-09-10 06:01:00,
2013-09-10 02:06:00,50.5,47.9,30.13,WSW,255,0.0,1.0,91,0.00,,,0.00,0.0,WUHU216DAVISVP2,2013-09-10 06:06:00,
2013-09-10 02:11:00,50.7,48.4,30.14,WSW,255,1.0,2.0,92,0.00,,,0.00,0.0,WUHU216DAVISVP2,2013-09-10 06:11:00,
2013-09-10 02:16:00,50.8,48.5,30.14,WSW,255,0.0,2.0,92,0.00,,,0.00,0.0,WUHU216DAVISVP2,2013-09-10 06:16:00,
2013-09-10 02:21:00,50.9,48.4,30.14,WSW,255,0.0,2.0,91,0.00,,,0.00,0.0,WUHU216DAVISVP2,2013-09-10 06:21:00,
2013-09-10 02:26:00,51.0,48.5,30.13,WSW,255,0.0,2.0,91,0.00,,,0.00,0.0,WUHU216DAVISVP2,2013-09-10 06:26:00,
2013-09-10 02:31:00,51.0,48.5,30.14,WSW,255,0.0,1.0,91,0.00,,,0.00,0.0,WUHU216DAVISVP2,2013-09-10 06:31:00,
2013-09-10 02:36:00,51.2,48.6,30.13,WSW,255,0.0,0.0,91,0.00,,,0.00,0.0,WUHU216DAVISVP2,2013-09-10 06:36:00,
2013-09-10 02:41:00,51.2,48.6,30.13,WSW,255,1.0,1.0,91,0.00,,,0.00,0.0,WUHU216DAVISVP2,2013-09-10 06:41:00,
2013-09-10 02:46:00,51.1,48.5,30.13,WSW,255,0.0,1.0,91,0.00,,,0.00,0.0,WUHU216DAVISVP2,2013-09-10 06:46:00,
2013-09-10 02:51:00,50.9,48.3,30.13,WSW,255,0.0,1.0,91,0.00,,,0.00,0.0,WUHU216DAVISVP2,2013-09-10 06:51:00,
2013-09-10 02:56:00,50.7,48.1,30.13,WSW,255,0.0,1.0,91,0.00,,,0.00,0.0,WUHU216DAVISVP2,2013-09-10 06:56:00,
2013-09-10 03:01:00,50.4,47.8,30.12,WSW,255,0.0,1.0,91,0.00,,,0.00,0.0,WUHU216DAVISVP2,2013-09-10 07:01:00,
2013-09-10 03:06:00,50.1,47.5,30.11,WSW,255,0.0,1.0,91,0.00,,,0.00,0.0,WUHU216DAVISVP2,2013-09-10 07:06:00,
2013-09-10 03:11:00,49.9,47.3,30.10,WSW,255,0.0,1.0,91,0.00,,,0.00,0.0,WUHU216DAVISVP2,2013-09-10 07:11:00,
2013-09-10 03:16:00,49.6,47.0,30.11,WSW,255,0.0,1.0,91,0.00,,,0.00,0.0,WUHU216DAVISVP2,2013-09-10 07:16:00,
2013-09-10 03:21:00,49.7,47.4,30.11,WSW,255,0.0,1.0,92,0.00,,,0.00,0.0,WUHU216DAVISVP2,2013-09-10 07:21:00,
2013-09-10 03:26:00,49.8,47.5,30.11,WSW,255,0.0,1.0,92,0.00,,,0.00,0.0,WUHU216DAVISVP2,2013-09-10 07:26:00,
2013-09-10 03:31:00,49.8,47.5,30.11,WSW,255,0.0,1.0,92,0.00,,,0.00,0.0,WUHU216DAVISVP2,2013-09-10 07:31:00,
2013-09-10 03:36:00,49.7,47.4,30.11,WSW,255,0.0,1.0,92,0.00,,,0.00,0.0,WUHU216DAVISVP2,2013-09-10 07:36:00,
2013-09-10 03:41:00,49.6,47.3,30.12,WSW,255,0.0,1.0,92,0.00,,,0.00,0.0,WUHU216DAVISVP2,2013-09-10 07:41:00,
2013-09-10 03:46:00,49.4,47.1,30.11,WSW,255,0.0,1.0,92,0.00,,,0.00,0.0,WUHU216DAVISVP2,2013-09-10 07:46:00,
2013-09-10 03:51:00,49.2,47.0,30.11,WSW,255,0.0,1.0,92,0.00,,,0.00,0.0,WUHU216DAVISVP2,2013-09-10 07:51:00,
2013-09-10 03:56:00,49.1,46.9,30.11,WSW,255,0.0,1.0,92,0.00,,,0.00,0.0,WUHU216DAVISVP2,2013-09-10 07:56:00,
2013-09-10 04:01:00,49.0,46.8,30.12,WSW,255,0.0,1.0,92,0.00,,,0.00,0.0,WUHU216DAVISVP2,2013-09-10 08:01:00,
2013-09-10 04:06:00,49.0,46.7,30.12,WSW,255,0.0,0.0,92,0.00,,,0.00,0.0,WUHU216DAVISVP2,2013-09-10 08:06:00,
2013-09-10 04:11:00,48.8,46.5,30.12,WSW,255,0.0,0.0,92,0.00,,,0.00,0.0,WUHU216DAVISVP2,2013-09-10 08:11:00,
2013-09-10 04:16:00,48.8,46.5,30.12,WSW,255,0.0,0.0,92,0.00,,,0.00,0.0,WUHU216DAVISVP2,2013-09-10 08:16:00,
2013-09-10 04:21:00,48.8,46.8,30.12,WSW,255,0.0,1.0,93,0.00,,,0.00,0.0,WUHU216DAVISVP2,2013-09-10 08:21:00,
2013-09-10 04:26:00,48.8,46.8,30.12,WSW,255,1.0,1.0,93,0.00,,,0.00,0.0,WUHU216DAVISVP2,2013-09-10 08:26:00,
2013-09-10 04:31:00,48.9,46.9,30.12,WSW,255,0.0,1.0,93,0.00,,,0.00,0.0,WUHU216DAVISVP2,2013-09-10 08:31:00,
2013-09-10 04:36:00,49.0,47.0,30.12,WSW,255,0.0,1.0,93,0.00,,,0.00,0.0,WUHU216DAVISVP2,2013-09-10 08:36:00,
2013-09-10 04:41:00,49.0,47.0,30.12,WSW,255,0.0,1.0,93,0.00,,,0.00,0.0,WUHU216DAVISVP2,2013-09-10 08:41:00,
2013-09-10 04:46:00,49.1,47.1,30.12,WSW,255,0.0,1.0,93,0.00,,,0.00,0.0,WUHU216DAVISVP2,2013-09-10 08:46:00,
2013-09-10 04:51:00,49.2,47.2,30.12,WSW,255,0.0,0.0,93,0.00,,,0.00,0.0,WUHU216DAVISVP2,2013-09-10 08:51:00,
2013-09-10 04:56:00,49.2,47.2,30.12,WSW,255,0.0,0.0,93,0.00,,,0.00,0.0,WUHU216DAVISVP2,2013-09-10 08:56:00,
2013-09-10 05:01:00,49.2,47.2,30.11,WSW,255,0.0,0.0,93,0.00,,,0.00,0.0,WUHU216DAVISVP2,2013-09-10 09:01:00,
2013-09-10 05:06:00,49.2,47.2,30.11,WSW,255,0.0,1.0,93,0.00,,,0.00,0.0,WUHU216DAVISVP2,2013-09-10 09:06:00,
2013-09-10 05:11:00,49.0,46.7,30.11,WSW,255,0.0,1.0,92,0.00,,,0.00,0.0,WUHU216DAVISVP2,2013-09-10 09:11:00,
2013-09-10 05:16:00,48.9,47.0,30.11,WSW,255,0.0,1.0,93,0.00,,,0.00,0.0,WUHU216DAVISVP2,2013-09-10 09:16:00,
2013-09-10 05:21:00,48.9,46.7,30.11,WSW,255,0.0,1.0,92,0.00,,,0.00,0.0,WUHU216DAVISVP2,2013-09-10 09:21:00,
2013-09-10 05:26:00,49.0,47.1,30.11,WSW,255,0.0,1.0,93,0.00,,,0.00,0.0,WUHU216DAVISVP2,2013-09-10 09:26:00,
2013-09-10 05:31:00,49.0,47.1,30.11,WSW,255,0.0,1.0,93,0.00,,,0.00,0.0,WUHU216DAVISVP2,2013-09-10 09:31:00,
2013-09-10 05:36:00,49.0,47.0,30.11,WSW,255,1.0,2.0,93,0.00,,,0.00,0.0,WUHU216DAVISVP2,2013-09-10 09:36:00,
2013-09-10 05:41:00,49.1,47.1,30.11,WSW,255,0.0,2.0,93,0.00,,,0.00,0.0,WUHU216DAVISVP2,2013-09-10 09:41:00,
2013-09-10 05:46:00,49.2,47.2,30.11,WSW,255,0.0,2.0,93,0.00,,,0.00,0.0,WUHU216DAVISVP2,2013-09-10 09:46:00,
2013-09-10 05:51:00,49.2,47.2,30.11,WSW,255,0.0,2.0,93,0.00,,,0.00,0.0,WUHU216DAVISVP2,2013-09-10 09:51:00,
2013-09-10 05:56:00,49.4,47.4,30.11,WSW,255,0.0,1.0,93,0.00,,,0.00,0.0,WUHU216DAVISVP2,2013-09-10 09:56:00,
2013-09-10 06:01:00,49.4,47.4,30.10,WSW,255,0.0,1.0,93,0.00,,,0.00,0.0,WUHU216DAVISVP2,2013-09-10 10:01:00,
2013-09-10 06:06:00,49.5,47.5,30.10,WSW,255,0.0,1.0,93,0.00,,,0.00,0.0,WUHU216DAVISVP2,2013-09-10 10:06:00,
2013-09-10 06:11:00,49.7,47.7,30.11,WSW,255,0.0,1.0,93,0.00,,,0.00,0.0,WUHU216DAVISVP2,2013-09-10 10:11:00,
2013-09-10 06:16:00,49.9,47.9,30.10,WSW,255,1.0,2.0,93,0.00,,,0.00,0.0,WUHU216DAVISVP2,2013-09-10 10:16:00,
2013-09-10 06:21:00,49.9,47.9,30.10,WSW,255,0.0,2.0,93,0.00,,,0.00,0.0,WUHU216DAVISVP2,2013-09-10 10:21:00,
2013-09-10 06:26:00,49.8,47.8,30.10,WSW,255,0.0,2.0,93,0.00,,,0.00,0.0,WUHU216DAVISVP2,2013-09-10 10:26:00,
2013-09-10 06:31:00,49.9,47.9,30.10,WSW,255,0.0,2.0,93,0.00,,,0.00,5.0,WUHU216DAVISVP2,2013-09-10 10:31:00,
2013-09-10 06:36:00,50.0,48.0,30.11,WSW,255,0.0,1.0,93,0.00,,,0.00,9.0,WUHU216DAVISVP2,2013-09-10 10:36:00,
2013-09-10 06:41:00,50.1,48.1,30.11,WSW,255,0.0,1.0,93,0.00,,,0.00,11.0,WUHU216DAVISVP2,2013-09-10 10:41:00,
2013-09-10 06:46:00,50.2,48.2,30.11,WSW,255,0.0,1.0,93,0.00,,,0.00,11.0,WUHU216DAVISVP2,2013-09-10 10:46:00,
2013-09-10 06:51:00,50.4,48.4,30.12,WSW,255,0.0,1.0,93,0.00,,,0.00,9.0,WUHU216DAVISVP2,2013-09-10 10:51:00,
2013-09-10 06:56:00,50.5,48.5,30.12,WSW,255,0.0,1.0,93,0.00,,,0.00,11.0,WUHU216DAVISVP2,2013-09-10 10:56:00,
2013-09-10 07:01:00,50.7,48.7,30.11,WSW,255,0.0,1.0,93,0.00,,,0.00,16.0,WUHU216DAVISVP2,2013-09-10 11:01:00,
2013-09-10 07:06:00,50.9,48.9,30.11,WSW,255,0.0,1.0,93,0.00,,,0.00,23.0,WUHU216DAVISVP2,2013-09-10 11:06:00,
2013-09-10 07:11:00,51.0,48.7,30.10,WSW,255,0.0,1.0,92,0.00,,,0.00,33.0,WUHU216DAVISVP2,2013-09-10 11:11:00,
2013-09-10 07:16:00,51.3,49.0,30.11,WSW,255,0.0,1.0,92,0.00,,,0.00,49.0,WUHU216DAVISVP2,2013-09-10 11:16:00,
2013-09-10 07:21:00,51.6,49.3,30.11,WSW,255,1.0,2.0,92,0.00,,,0.00,63.0,WUHU216DAVISVP2,2013-09-10 11:21:00,
2013-09-10 07:26:00,51.6,49.3,30.10,WSW,250,0.0,2.0,92,0.00,,,0.00,49.0,WUHU216DAVISVP2,2013-09-10 11:26:00,
2013-09-10 07:31:00,51.9,49.6,30.10,WSW,250,0.0,2.0,92,0.00,,,0.00,47.0,WUHU216DAVISVP2,2013-09-10 11:31:00,
2013-09-10 07:36:00,52.2,49.9,30.10,WSW,250,0.0,2.0,92,0.00,,,0.00,53.0,WUHU216DAVISVP2,2013-09-10 11:36:00,
2013-09-10 07:41:00,52.1,49.5,30.11,WSW,250,0.0,2.0,91,0.00,,,0.00,44.0,WUHU216DAVISVP2,2013-09-10 11:41:00,
2013-09-10 07:46:00,52.3,49.7,30.11,WSW,250,0.0,2.0,91,0.00,,,0.00,42.0,WUHU216DAVISVP2,2013-09-10 11:46:00,
2013-09-10 07:51:00,52.5,49.9,30.10,WSW,250,0.0,2.0,91,0.00,,,0.00,70.0,WUHU216DAVISVP2,2013-09-10 11:51:00,
2013-09-10 07:56:00,52.6,50.0,30.10,WSW,250,0.0,2.0,91,0.00,,,0.00,86.0,WUHU216DAVISVP2,2013-09-10 11:56:00,
2013-09-10 08:01:00,53.0,50.4,30.10,WSW,250,1.0,2.0,91,0.00,,,0.00,76.0,WUHU216DAVISVP2,2013-09-10 12:01:00,
2013-09-10 08:06:00,53.3,50.7,30.10,WSW,250,0.0,2.0,91,0.00,,,0.00,69.0,WUHU216DAVISVP2,2013-09-10 12:06:00,
2013-09-10 08:11:00,53.6,50.7,30.10,WSW,250,0.0,2.0,90,0.00,,,0.00,72.0,WUHU216DAVISVP2,2013-09-10 12:11:00,
2013-09-10 08:16:00,53.8,50.6,30.10,WSW,250,1.0,1.0,89,0.00,,,0.00,51.0,WUHU216DAVISVP2,2013-09-10 12:16:00,
2013-09-10 08:21:00,53.8,50.3,30.10,WSW,250,0.0,2.0,88,0.00,,,0.00,58.0,WUHU216DAVISVP2,2013-09-10 12:21:00,
2013-09-10 08:26:00,54.0,50.5,30.10,WSW,250,0.0,2.0,88,0.00,,,0.00,60.0,WUHU216DAVISVP2,2013-09-10 12:26:00,
2013-09-10 08:31:00,54.1,50.6,30.10,WSW,250,0.0,2.0,88,0.00,,,0.00,54.0,WUHU216DAVISVP2,2013-09-10 12:31:00,
2013-09-10 08:36:00,54.4,50.9,30.10,WSW,250,2.0,2.0,88,0.00,,,0.00,58.0,WUHU216DAVISVP2,2013-09-10 12:36:00,
2013-09-10 08:41:00,54.6,51.1,30.10,WSW,250,1.0,2.0,88,0.00,,,0.00,53.0,WUHU216DAVISVP2,2013-09-10 12:41:00,
2013-09-10 08:46:00,54.4,50.6,30.10,WSW,250,1.0,2.0,87,0.00,,,0.00,44.0,WUHU216DAVISVP2,2013-09-10 12:46:00,
2013-09-10 08:51:00,54.5,50.7,30.10,WSW,250,0.0,2.0,87,0.00,,,0.00,30.0,WUHU216DAVISVP2,2013-09-10 12:51:00,
2013-09-10 08:56:00,54.6,50.8,30.10,WSW,250,0.0,2.0,87,0.00,,,0.00,37.0,WUHU216DAVISVP2,2013-09-10 12:56:00,
2013-09-10 09:01:00,54.6,50.8,30.10,WSW,250,2.0,2.0,87,0.00,,,0.00,33.0,WUHU216DAVISVP2,2013-09-10 13:01:00,
2013-09-10 09:06:00,54.7,50.9,30.09,WSW,250,1.0,2.0,87,0.00,,,0.00,69.0,WUHU216DAVISVP2,2013-09-10 13:06:00,
2013-09-10 09:11:00,55.0,51.5,30.09,WSW,250,0.0,2.0,88,0.00,,,0.00,88.0,WUHU216DAVISVP2,2013-09-10 13:11:00,
2013-09-10 09:16:00,55.3,51.5,30.09,WSW,250,1.0,2.0,87,0.00,,,0.00,83.0,WUHU216DAVISVP2,2013-09-10 13:16:00,
2013-09-10 09:21:00,55.6,51.8,30.09,WSW,250,0.0,2.0,87,0.00,,,0.00,104.0,WUHU216DAVISVP2,2013-09-10 13:21:00,
2013-09-10 09:26:00,55.8,52.0,30.09,WSW,250,1.0,2.0,87,0.00,,,0.00,88.0,WUHU216DAVISVP2,2013-09-10 13:26:00,
2013-09-10 09:31:00,55.8,52.0,30.09,WSW,250,0.0,2.0,87,0.00,,,0.00,88.0,WUHU216DAVISVP2,2013-09-10 13:31:00,
2013-09-10 09:36:00,55.8,52.0,30.09,WSW,250,1.0,2.0,87,0.00,,,0.00,98.0,WUHU216DAVISVP2,2013-09-10 13:36:00,
2013-09-10 09:41:00,56.1,52.0,30.09,WSW,250,1.0,2.0,86,0.00,,,0.00,91.0,WUHU216DAVISVP2,2013-09-10 13:41:00,
2013-09-10 09:46:00,56.4,52.9,30.08,WSW,250,0.0,2.0,88,0.00,,,0.00,104.0,WUHU216DAVISVP2,2013-09-10 13:46:00,
2013-09-10 09:51:00,56.9,53.1,30.08,WSW,250,1.0,2.0,87,0.00,,,0.00,91.0,WUHU216DAVISVP2,2013-09-10 13:51:00,
2013-09-10 09:56:00,57.5,53.3,30.08,WSW,250,0.0,2.0,86,0.00,,,0.00,84.0,WUHU216DAVISVP2,2013-09-10 13:56:00,
2013-09-10 10:01:00,57.2,52.7,30.08,WSW,250,0.0,1.0,85,0.00,,,0.00,86.0,WUHU216DAVISVP2,2013-09-10 14:01:00,
2013-09-10 10:06:00,57.3,53.1,30.08,WSW,250,0.0,1.0,86,0.00,,,0.00,77.0,WUHU216DAVISVP2,2013-09-10 14:06:00,
2013-09-10 10:11:00,57.5,53.3,30.08,SSW,204,1.0,2.0,86,0.00,,,0.00,111.0,WUHU216DAVISVP2,2013-09-10 14:11:00,
2013-09-10 10:16:00,57.6,53.7,30.08,SSW,196,0.0,2.0,87,0.00,,,0.00,90.0,WUHU216DAVISVP2,2013-09-10 14:16:00,
2013-09-10 10:21:00,57.6,53.7,30.08,SSW,196,0.0,2.0,87,0.00,,,0.00,72.0,WUHU216DAVISVP2,2013-09-10 14:21:00,
2013-09-10 10:26:00,57.6,53.8,30.09,SSW,196,1.0,2.0,87,0.00,,,0.00,65.0,WUHU216DAVISVP2,2013-09-10 14:26:00,
2013-09-10 10:31:00,57.6,53.7,30.09,SSW,196,0.0,2.0,87,0.00,,,0.00,44.0,WUHU216DAVISVP2,2013-09-10 14:31:00,
2013-09-10 10:36:00,57.7,54.5,30.09,SSW,196,0.0,2.0,89,0.00,,,0.00,39.0,WUHU216DAVISVP2,2013-09-10 14:36:00,
2013-09-10 10:41:00,57.4,54.2,30.09,SSW,196,1.0,2.0,89,0.00,,,0.00,46.0,WUHU216DAVISVP2,2013-09-10 14:41:00,
2013-09-10 10:46:00,57.3,54.4,30.08,SSW,196,0.0,1.0,90,0.01,,,0.01,60.0,WUHU216DAVISVP2,2013-09-10 14:46:00,
2013-09-10 10:51:00,57.5,54.6,30.07,SSW,196,0.0,1.0,90,0.01,,,0.01,69.0,WUHU216DAVISVP2,2013-09-10 14:51:00,
2013-09-10 10:56:00,57.5,54.3,30.07,SSW,196,0.0,1.0,89,0.01,,,0.01,65.0,WUHU216DAVISVP2,2013-09-10 14:56:00,
2013-09-10 11:01:00,57.6,55.0,30.07,SSW,196,1.0,1.0,91,0.01,,,0.01,62.0,WUHU216DAVISVP2,2013-09-10 15:01:00,
2013-09-10 11:06:00,57.7,55.1,30.06,SSW,196,0.0,1.0,91,0.02,,,0.02,54.0,WUHU216DAVISVP2,2013-09-10 15:06:00,
2013-09-10 11:11:00,57.4,54.5,30.07,SSW,196,0.0,1.0,90,0.03,,,0.03,32.0,WUHU216DAVISVP2,2013-09-10 15:11:00,
2013-09-10 11:16:00,57.2,54.3,30.06,SSW,196,0.0,1.0,90,0.03,,,0.03,25.0,WUHU216DAVISVP2,2013-09-10 15:16:00,
2013-09-10 11:21:00,56.8,54.2,30.07,SSW,196,0.0,1.0,91,0.04,,,0.04,25.0,WUHU216DAVISVP2,2013-09-10 15:21:00,
2013-09-10 11:26:00,56.8,54.5,30.07,SSW,196,0.0,1.0,92,0.05,,,0.05,33.0,WUHU216DAVISVP2,2013-09-10 15:26:00,
2013-09-10 11:31:00,57.1,55.1,30.07,SSW,196,0.0,1.0,93,0.05,,,0.05,53.0,WUHU216DAVISVP2,2013-09-10 15:31:00,
2013-09-10 11:36:00,57.2,54.9,30.07,SSW,196,0.0,1.0,92,0.06,,,0.06,46.0,WUHU216DAVISVP2,2013-09-10 15:36:00,
2013-09-10 11:41:00,57.1,54.8,30.08,SSW,196,0.0,1.0,92,0.06,,,0.06,42.0,WUHU216DAVISVP2,2013-09-10 15:41:00,
2013-09-10 11:46:00,57.4,55.4,30.07,SSW,196,0.0,1.0,93,0.06,,,0.07,69.0,WUHU216DAVISVP2,2013-09-10 15:46:00,
2013-09-10 11:51:00,57.6,55.6,30.07,SSW,196,1.0,1.0,93,0.06,,,0.07,91.0,WUHU216DAVISVP2,2013-09-10 15:51:00,
2013-09-10 11:56:00,57.9,55.8,30.07,SSW,196,0.0,2.0,93,0.06,,,0.07,111.0,WUHU216DAVISVP2,2013-09-10 15:56:00,
2013-09-10 12:01:00,58.0,55.9,30.07,SSW,196,0.0,2.0,93,0.08,,,0.09,130.0,WUHU216DAVISVP2,2013-09-10 16:01:00,
2013-09-10 12:06:00,58.2,55.8,30.07,SSW,196,0.0,2.0,92,0.09,,,0.11,139.0,WUHU216DAVISVP2,2013-09-10 16:06:00,
2013-09-10 12:11:00,58.4,56.1,30.07,SSW,196,0.0,2.0,92,0.08,,,0.11,91.0,WUHU216DAVISVP2,2013-09-10 16:11:00,
2013-09-10 12:16:00,58.2,55.9,30.08,SSW,196,0.0,2.0,92,0.09,,,0.12,65.0,WUHU216DAVISVP2,2013-09-10 16:16:00,
2013-09-10 12:21:00,58.1,55.8,30.07,SSW,196,1.0,2.0,92,0.09,,,0.13,116.0,WUHU216DAVISVP2,2013-09-10 16:21:00,
2013-09-10 12:26:00,58.5,56.4,30.07,SSW,196,0.0,2.0,93,0.08,,,0.13,155.0,WUHU216DAVISVP2,2013-09-10 16:26:00,
2013-09-10 12:31:00,59.2,57.2,30.07,SSE,165,0.0,3.0,93,0.08,,,0.13,221.0,WUHU216DAVISVP2,2013-09-10 16:31:00,
2013-09-10 12:36:00,59.5,57.4,30.07,SSE,165,0.0,3.0,93,0.07,,,0.13,387.0,WUHU216DAVISVP2,2013-09-10 16:36:00,
2013-09-10 12:41:00,59.3,56.9,30.06,WSW,248,1.0,2.0,92,0.07,,,0.13,179.0,WUHU216DAVISVP2,2013-09-10 16:41:00,
2013-09-10 12:46:00,59.1,56.8,30.06,WSW,248,1.0,2.0,92,0.06,,,0.13,158.0,WUHU216DAVISVP2,2013-09-10 16:46:00,
2013-09-10 12:51:00,59.3,57.3,30.06,WSW,253,0.0,2.0,93,0.06,,,0.13,86.0,WUHU216DAVISVP2,2013-09-10 16:51:00,
2013-09-10 12:56:00,59.5,57.5,30.06,WSW,253,0.0,2.0,93,0.06,,,0.13,69.0,WUHU216DAVISVP2,2013-09-10 16:56:00,
2013-09-10 13:01:00,59.8,57.8,30.06,WSW,253,0.0,2.0,93,0.05,,,0.14,105.0,WUHU216DAVISVP2,2013-09-10 17:01:00,
2013-09-10 13:06:00,59.6,57.6,30.06,WSW,253,0.0,2.0,93,0.03,,,0.14,79.0,WUHU216DAVISVP2,2013-09-10 17:06:00,
2013-09-10 13:11:00,60.0,57.9,30.06,WSW,253,0.0,1.0,93,0.03,,,0.14,84.0,WUHU216DAVISVP2,2013-09-10 17:11:00,
2013-09-10 13:16:00,59.9,57.5,30.06,WSW,253,0.0,1.0,92,0.02,,,0.14,65.0,WUHU216DAVISVP2,2013-09-10 17:16:00,
2013-09-10 13:21:00,60.0,57.9,30.06,WSW,253,0.0,1.0,93,0.01,,,0.14,90.0,WUHU216DAVISVP2,2013-09-10 17:21:00,
2013-09-10 13:26:00,60.0,57.9,30.06,WSW,253,1.0,1.0,93,0.02,,,0.15,70.0,WUHU216DAVISVP2,2013-09-10 17:26:00,
2013-09-10 13:31:00,59.9,57.5,30.06,WSW,253,1.0,1.0,92,0.02,,,0.15,53.0,WUHU216DAVISVP2,2013-09-10 17:31:00,
2013-09-10 13:36:00,60.0,57.9,30.06,WSW,253,0.0,1.0,93,0.02,,,0.15,54.0,WUHU216DAVISVP2,2013-09-10 17:36:00,
2013-09-10 13:41:00,59.7,57.3,30.06,WSW,253,0.0,1.0,92,0.02,,,0.15,67.0,WUHU216DAVISVP2,2013-09-10 17:41:00,
2013-09-10 13:46:00,60.0,57.9,30.06,WSW,253,0.0,1.0,93,0.02,,,0.15,70.0,WUHU216DAVISVP2,2013-09-10 17:46:00,
2013-09-10 13:51:00,59.9,57.5,30.06,WSW,253,0.0,1.0,92,0.02,,,0.15,83.0,WUHU216DAVISVP2,2013-09-10 17:51:00,
2013-09-10 13:56:00,60.1,58.0,30.05,WSW,253,0.0,1.0,93,0.02,,,0.15,88.0,WUHU216DAVISVP2,2013-09-10 17:56:00,
2013-09-10 14:01:00,60.3,58.2,30.05,WSW,253,0.0,1.0,93,0.01,,,0.15,91.0,WUHU216DAVISVP2,2013-09-10 18:01:00,
2013-09-10 14:06:00,60.1,57.8,30.05,WSW,253,0.0,1.0,92,0.01,,,0.15,114.0,WUHU216DAVISVP2,2013-09-10 18:06:00,
2013-09-10 14:11:00,60.4,58.1,30.05,WSW,253,0.0,1.0,92,0.01,,,0.15,255.0,WUHU216DAVISVP2,2013-09-10 18:11:00,
2013-09-10 14:16:00,60.9,58.9,30.05,WSW,253,0.0,2.0,93,0.01,,,0.15,174.0,WUHU216DAVISVP2,2013-09-10 18:16:00,
2013-09-10 14:21:00,61.1,58.8,30.05,WSW,254,1.0,2.0,92,0.01,,,0.15,292.0,WUHU216DAVISVP2,2013-09-10 18:21:00,
2013-09-10 14:26:00,61.5,58.8,30.04,SW,214,0.0,2.0,91,0.00,,,0.15,322.0,WUHU216DAVISVP2,2013-09-10 18:26:00,
2013-09-10 14:31:00,61.7,58.7,30.04,SW,215,1.0,3.0,90,0.00,,,0.15,193.0,WUHU216DAVISVP2,2013-09-10 18:31:00,
2013-09-10 14:36:00,61.9,59.2,30.04,SW,233,1.0,3.0,91,0.00,,,0.15,267.0,WUHU216DAVISVP2,2013-09-10 18:36:00,
2013-09-10 14:41:00,62.6,60.2,30.04,West,267,0.0,3.0,92,0.00,,,0.15,262.0,WUHU216DAVISVP2,2013-09-10 18:41:00,
2013-09-10 14:46:00,62.6,59.6,30.04,West,267,1.0,3.0,90,0.00,,,0.15,255.0,WUHU216DAVISVP2,2013-09-10 18:46:00,
2013-09-10 14:51:00,62.9,60.2,30.04,West,267,1.0,2.0,91,0.00,,,0.15,264.0,WUHU216DAVISVP2,2013-09-10 18:51:00,
2013-09-10 14:56:00,63.5,60.2,30.04,West,260,1.0,2.0,89,0.00,,,0.15,244.0,WUHU216DAVISVP2,2013-09-10 18:56:00,
2013-09-10 15:01:00,63.6,60.3,30.04,SSW,201,0.0,3.0,89,0.00,,,0.15,299.0,WUHU216DAVISVP2,2013-09-10 19:01:00,
2013-09-10 15:06:00,64.4,61.4,30.04,SSW,201,0.0,3.0,90,0.00,,,0.15,255.0,WUHU216DAVISVP2,2013-09-10 19:06:00,
2013-09-10 15:11:00,65.2,62.2,30.04,East,98,1.0,3.0,90,0.00,,,0.15,295.0,WUHU216DAVISVP2,2013-09-10 19:11:00,
2013-09-10 15:16:00,65.0,61.0,30.04,ESE,116,1.0,3.0,87,0.00,,,0.15,483.0,WUHU216DAVISVP2,2013-09-10 19:16:00,
2013-09-10 15:21:00,65.7,61.4,30.04,NNE,16,1.0,2.0,86,0.00,,,0.15,534.0,WUHU216DAVISVP2,2013-09-10 19:21:00,
2013-09-10 15:26:00,66.6,61.6,30.03,SW,215,1.0,3.0,84,0.00,,,0.15,545.0,WUHU216DAVISVP2,2013-09-10 19:26:00,
2013-09-10 15:31:00,66.1,62.4,30.04,ESE,116,0.0,3.0,88,0.00,,,0.15,265.0,WUHU216DAVISVP2,2013-09-10 19:31:00,
2013-09-10 15:36:00,65.6,61.3,30.04,SW,235,3.0,3.0,86,0.00,,,0.15,237.0,WUHU216DAVISVP2,2013-09-10 19:36:00,
2013-09-10 15:41:00,65.7,62.0,30.04,East,83,2.0,3.0,88,0.00,,,0.15,262.0,WUHU216DAVISVP2,2013-09-10 19:41:00,
2013-09-10 15:46:00,66.5,61.9,30.04,East,82,0.0,3.0,85,0.00,,,0.15,216.0,WUHU216DAVISVP2,2013-09-10 19:46:00,
2013-09-10 15:51:00,66.7,62.7,30.03,ENE,71,1.0,3.0,87,0.00,,,0.15,257.0,WUHU216DAVISVP2,2013-09-10 19:51:00,
2013-09-10 15:56:00,67.1,62.4,30.03,NE,53,1.0,3.0,85,0.00,,,0.15,244.0,WUHU216DAVISVP2,2013-09-10 19:56:00,
2013-09-10 16:01:00,67.5,63.2,30.04,NE,53,0.0,3.0,86,0.00,,,0.15,197.0,WUHU216DAVISVP2,2013-09-10 20:01:00,
2013-09-10 16:06:00,67.4,62.7,30.04,NNE,19,1.0,3.0,85,0.00,,,0.15,127.0,WUHU216DAVISVP2,2013-09-10 20:06:00,
2013-09-10 16:11:00,67.4,63.7,30.03,NNE,19,1.0,3.0,88,0.00,,,0.15,160.0,WUHU216DAVISVP2,2013-09-10 20:11:00,
2013-09-10 16:16:00,67.7,63.7,30.03,NNE,19,0.0,2.0,87,0.00,,,0.15,200.0,WUHU216DAVISVP2,2013-09-10 20:16:00,
2013-09-10 16:21:00,67.9,63.6,30.03,WNW,303,1.0,2.0,86,0.00,,,0.15,211.0,WUHU216DAVISVP2,2013-09-10 20:21:00,
2013-09-10 16:26:00,68.4,63.7,30.03,NW,322,1.0,2.0,85,0.00,,,0.15,151.0,WUHU216DAVISVP2,2013-09-10 20:26:00,
2013-09-10 16:31:00,68.4,63.7,30.03,NW,322,1.0,2.0,85,0.00,,,0.15,188.0,WUHU216DAVISVP2,2013-09-10 20:31:00,
2013-09-10 16:36:00,68.8,64.1,30.03,NW,325,0.0,2.0,85,0.00,,,0.15,250.0,WUHU216DAVISVP2,2013-09-10 20:36:00,
2013-09-10 16:41:00,68.8,64.1,30.02,NW,325,1.0,2.0,85,0.00,,,0.15,227.0,WUHU216DAVISVP2,2013-09-10 20:41:00,
2013-09-10 16:46:00,68.6,65.2,30.02,NW,325,1.0,2.0,89,0.00,,,0.15,167.0,WUHU216DAVISVP2,2013-09-10 20:46:00,
2013-09-10 16:51:00,69.2,64.2,30.02,NW,312,1.0,2.0,84,0.00,,,0.15,176.0,WUHU216DAVISVP2,2013-09-10 20:51:00,
2013-09-10 16:56:00,68.6,63.6,30.03,WSW,253,1.0,2.0,84,0.00,,,0.15,100.0,WUHU216DAVISVP2,2013-09-10 20:56:00,
2013-09-10 17:01:00,68.3,64.3,30.03,WSW,254,2.0,2.0,87,0.00,,,0.15,77.0,WUHU216DAVISVP2,2013-09-10 21:01:00,
2013-09-10 17:06:00,67.9,63.9,30.03,WSW,257,0.0,2.0,87,0.00,,,0.15,56.0,WUHU216DAVISVP2,2013-09-10 21:06:00,
2013-09-10 17:11:00,67.6,63.9,30.03,WSW,257,0.0,2.0,88,0.00,,,0.15,56.0,WUHU216DAVISVP2,2013-09-10 21:11:00,
2013-09-10 17:16:00,67.4,64.0,30.03,WSW,257,2.0,2.0,89,0.00,,,0.15,49.0,WUHU216DAVISVP2,2013-09-10 21:16:00,
2013-09-10 17:21:00,67.1,63.7,30.03,WSW,257,0.0,2.0,89,0.00,,,0.15,33.0,WUHU216DAVISVP2,2013-09-10 21:21:00,
2013-09-10 17:26:00,66.9,63.9,30.03,WSW,257,0.0,2.0,90,0.00,,,0.15,37.0,WUHU216DAVISVP2,2013-09-10 21:26:00,
2013-09-10 17:31:00,66.7,63.7,30.03,WSW,257,1.0,2.0,90,0.00,,,0.15,30.0,WUHU216DAVISVP2,2013-09-10 21:31:00,
2013-09-10 17:36:00,66.5,63.5,30.03,WSW,257,1.0,1.0,90,0.00,,,0.15,35.0,WUHU216DAVISVP2,2013-09-10 21:36:00,
2013-09-10 17:41:00,66.6,63.6,30.03,WSW,257,0.0,1.0,90,0.00,,,0.15,26.0,WUHU216DAVISVP2,2013-09-10 21:41:00,
2013-09-10 17:46:00,66.6,63.6,30.03,WSW,257,0.0,1.0,90,0.00,,,0.15,23.0,WUHU216DAVISVP2,2013-09-10 21:46:00,
2013-09-10 17:51:00,66.5,63.5,30.03,WSW,257,0.0,1.0,90,0.00,,,0.15,21.0,WUHU216DAVISVP2,2013-09-10 21:51:00,
2013-09-10 17:56:00,66.3,63.6,30.03,WSW,257,1.0,1.0,91,0.00,,,0.15,19.0,WUHU216DAVISVP2,2013-09-10 21:56:00,
2013-09-10 18:01:00,66.2,63.5,30.03,WSW,257,0.0,2.0,91,0.00,,,0.15,16.0,WUHU216DAVISVP2,2013-09-10 22:01:00,
2013-09-10 18:06:00,66.0,63.3,30.03,WSW,257,0.0,2.0,91,0.00,,,0.15,14.0,WUHU216DAVISVP2,2013-09-10 22:06:00,
2013-09-10 18:11:00,65.9,63.2,30.03,WSW,257,0.0,2.0,91,0.00,,,0.15,12.0,WUHU216DAVISVP2,2013-09-10 22:11:00,
2013-09-10 18:16:00,66.1,63.4,30.03,WSW,257,0.0,2.0,91,0.00,,,0.15,11.0,WUHU216DAVISVP2,2013-09-10 22:16:00,
2013-09-10 18:21:00,65.9,63.2,30.03,WSW,257,1.0,1.0,91,0.00,,,0.15,12.0,WUHU216DAVISVP2,2013-09-10 22:21:00,
2013-09-10 18:26:00,65.8,63.4,30.04,WSW,257,1.0,1.0,92,0.00,,,0.15,11.0,WUHU216DAVISVP2,2013-09-10 22:26:00,
2013-09-10 18:31:00,65.8,63.4,30.04,WSW,257,0.0,1.0,92,0.00,,,0.15,9.0,WUHU216DAVISVP2,2013-09-10 22:31:00,
2013-09-10 18:36:00,65.8,63.4,30.04,WSW,257,0.0,1.0,92,0.00,,,0.15,9.0,WUHU216DAVISVP2,2013-09-10 22:36:00,
2013-09-10 18:41:00,65.7,63.3,30.04,WSW,257,0.0,1.0,92,0.00,,,0.15,7.0,WUHU216DAVISVP2,2013-09-10 22:41:00,
2013-09-10 18:46:00,65.8,63.4,30.04,WSW,257,0.0,1.0,92,0.00,,,0.15,7.0,WUHU216DAVISVP2,2013-09-10 22:46:00,
2013-09-10 18:51:00,65.6,63.2,30.04,WSW,257,0.0,1.0,92,0.00,,,0.15,5.0,WUHU216DAVISVP2,2013-09-10 22:51:00,
2013-09-10 18:56:00,65.6,63.2,30.04,WSW,257,0.0,1.0,92,0.00,,,0.15,0.0,WUHU216DAVISVP2,2013-09-10 22:56:00,
2013-09-10 19:01:00,65.5,63.1,30.04,WSW,257,0.0,1.0,92,0.00,,,0.15,0.0,WUHU216DAVISVP2,2013-09-10 23:01:00,
2013-09-10 19:06:00,65.5,63.1,30.04,WSW,257,0.0,1.0,92,0.00,,,0.15,0.0,WUHU216DAVISVP2,2013-09-10 23:06:00,
2013-09-10 19:11:00,65.4,63.0,30.04,WSW,257,0.0,1.0,92,0.00,,,0.15,0.0,WUHU216DAVISVP2,2013-09-10 23:11:00,
2013-09-10 19:16:00,65.3,62.9,30.05,WSW,257,0.0,1.0,92,0.00,,,0.15,0.0,WUHU216DAVISVP2,2013-09-10 23:16:00,
2013-09-10 19:21:00,65.4,63.0,30.05,WSW,257,0.0,1.0,92,0.00,,,0.15,0.0,WUHU216DAVISVP2,2013-09-10 23:21:00,
2013-09-10 19:26:00,65.2,62.8,30.05,WSW,257,0.0,1.0,92,0.00,,,0.15,0.0,WUHU216DAVISVP2,2013-09-10 23:26:00,
2013-09-10 19:31:00,65.2,62.8,30.05,WSW,257,0.0,1.0,92,0.00,,,0.15,0.0,WUHU216DAVISVP2,2013-09-10 23:31:00,
2013-09-10 19:36:00,65.1,62.7,30.06,WSW,257,0.0,1.0,92,0.00,,,0.15,0.0,WUHU216DAVISVP2,2013-09-10 23:36:00,
2013-09-10 19:41:00,65.1,62.7,30.06,WSW,257,0.0,1.0,92,0.00,,,0.15,0.0,WUHU216DAVISVP2,2013-09-10 23:41:00,
2013-09-10 19:46:00,65.1,63.0,30.06,WSW,257,0.0,0.0,93,0.00,,,0.15,0.0,WUHU216DAVISVP2,2013-09-10 23:46:00,
2013-09-10 19:51:00,65.0,62.9,30.06,WSW,257,1.0,1.0,93,0.00,,,0.15,0.0,WUHU216DAVISVP2,2013-09-10 23:51:00,
2013-09-10 19:56:00,65.0,62.6,30.06,WSW,257,0.0,1.0,92,0.00,,,0.15,0.0,WUHU216DAVISVP2,2013-09-10 23:56:00,
2013-09-10 20:01:00,64.9,62.8,30.06,WSW,257,0.0,1.0,93,0.00,,,0.15,0.0,WUHU216DAVISVP2,2013-09-11 00:01:00,
2013-09-10 20:06:00,64.9,62.8,30.06,WSW,257,0.0,1.0,93,0.00,,,0.15,0.0,WUHU216DAVISVP2,2013-09-11 00:06:00,
2013-09-10 20:11:00,64.9,62.8,30.07,WSW,257,0.0,1.0,93,0.00,,,0.15,0.0,WUHU216DAVISVP2,2013-09-11 00:11:00,
2013-09-10 20:16:00,64.9,62.8,30.06,WSW,257,0.0,0.0,93,0.00,,,0.15,0.0,WUHU216DAVISVP2,2013-09-11 00:16:00,
2013-09-10 20:21:00,64.9,62.5,30.06,WSW,257,0.0,0.0,92,0.00,,,0.15,0.0,WUHU216DAVISVP2,2013-09-11 00:21:00,
2013-09-10 20:26:00,64.8,62.7,30.06,WSW,257,1.0,1.0,93,0.00,,,0.15,0.0,WUHU216DAVISVP2,2013-09-11 00:26:00,
2013-09-10 20:31:00,64.8,62.7,30.07,WSW,257,0.0,1.0,93,0.00,,,0.15,0.0,WUHU216DAVISVP2,2013-09-11 00:31:00,
2013-09-10 20:36:00,64.8,62.7,30.07,WSW,257,0.0,1.0,93,0.00,,,0.15,0.0,WUHU216DAVISVP2,2013-09-11 00:36:00,
2013-09-10 20:41:00,64.8,62.7,30.07,WSW,257,0.0,1.0,93,0.00,,,0.15,0.0,WUHU216DAVISVP2,2013-09-11 00:41:00,
2013-09-10 20:46:00,64.7,62.6,30.07,WSW,257,0.0,0.0,93,0.00,,,0.15,0.0,WUHU216DAVISVP2,2013-09-11 00:46:00,
2013-09-10 20:51:00,64.8,62.7,30.08,WSW,257,0.0,0.0,93,0.00,,,0.15,0.0,WUHU216DAVISVP2,2013-09-11 00:51:00,
2013-09-10 20:56:00,64.8,62.7,30.07,WSW,257,0.0,0.0,93,0.00,,,0.15,0.0,WUHU216DAVISVP2,2013-09-11 00:56:00,
2013-09-10 21:01:00,64.7,62.6,30.07,WSW,257,1.0,1.0,93,0.00,,,0.15,0.0,WUHU216DAVISVP2,2013-09-11 01:01:00,
2013-09-10 21:06:00,64.7,62.6,30.07,WSW,257,0.0,1.0,93,0.00,,,0.15,0.0,WUHU216DAVISVP2,2013-09-11 01:06:00,
2013-09-10 21:11:00,64.7,62.6,30.07,WSW,257,0.0,1.0,93,0.00,,,0.15,0.0,WUHU216DAVISVP2,2013-09-11 01:11:00,
2013-09-10 21:16:00,64.7,62.6,30.07,WSW,257,0.0,1.0,93,0.00,,,0.15,0.0,WUHU216DAVISVP2,2013-09-11 01:16:00,
2013-09-10 21:21:00,64.6,62.5,30.07,WSW,257,0.0,1.0,93,0.00,,,0.15,0.0,WUHU216DAVISVP2,2013-09-11 01:21:00,
2013-09-10 21:26:00,64.7,62.6,30.07,WSW,257,0.0,1.0,93,0.00,,,0.15,0.0,WUHU216DAVISVP2,2013-09-11 01:26:00,
2013-09-10 21:31:00,64.6,62.5,30.07,WSW,257,0.0,1.0,93,0.00,,,0.15,0.0,WUHU216DAVISVP2,2013-09-11 01:31:00,
2013-09-10 21:36:00,64.6,62.5,30.07,WSW,257,0.0,1.0,93,0.00,,,0.15,0.0,WUHU216DAVISVP2,2013-09-11 01:36:00,
2013-09-10 21:41:00,64.6,62.5,30.06,WSW,257,0.0,0.0,93,0.00,,,0.15,0.0,WUHU216DAVISVP2,2013-09-11 01:41:00,
2013-09-10 21:46:00,64.5,62.4,30.06,WSW,257,1.0,1.0,93,0.00,,,0.15,0.0,WUHU216DAVISVP2,2013-09-11 01:46:00,
2013-09-10 21:51:00,64.4,62.3,30.07,WSW,257,0.0,1.0,93,0.00,,,0.15,0.0,WUHU216DAVISVP2,2013-09-11 01:51:00,
2013-09-10 21:56:00,64.4,62.3,30.07,WSW,257,0.0,1.0,93,0.00,,,0.15,0.0,WUHU216DAVISVP2,2013-09-11 01:56:00,
2013-09-10 22:01:00,64.5,62.4,30.06,WSW,257,0.0,1.0,93,0.00,,,0.15,0.0,WUHU216DAVISVP2,2013-09-11 02:01:00,
2013-09-10 22:06:00,64.5,62.4,30.07,WSW,257,0.0,1.0,93,0.00,,,0.15,0.0,WUHU216DAVISVP2,2013-09-11 02:06:00,
2013-09-10 22:11:00,64.5,62.4,30.07,WSW,257,0.0,0.0,93,0.00,,,0.15,0.0,WUHU216DAVISVP2,2013-09-11 02:11:00,
2013-09-10 22:16:00,64.5,62.4,30.06,WSW,257,0.0,0.0,93,0.00,,,0.15,0.0,WUHU216DAVISVP2,2013-09-11 02:16:00,
2013-09-10 22:21:00,64.5,62.4,30.06,WSW,257,0.0,0.0,93,0.00,,,0.15,0.0,WUHU216DAVISVP2,2013-09-11 02:21:00,
2013-09-10 22:26:00,64.4,62.3,30.06,WSW,257,0.0,0.0,93,0.00,,,0.15,0.0,WUHU216DAVISVP2,2013-09-11 02:26:00,
2013-09-10 22:31:00,64.4,62.3,30.06,WSW,257,0.0,0.0,93,0.00,,,0.15,0.0,WUHU216DAVISVP2,2013-09-11 02:31:00,
2013-09-10 22:36:00,64.4,62.3,30.06,WSW,257,0.0,0.0,93,0.00,,,0.15,0.0,WUHU216DAVISVP2,2013-09-11 02:36:00,
2013-09-10 22:41:00,64.3,62.2,30.06,WSW,257,0.0,1.0,93,0.00,,,0.15,0.0,WUHU216DAVISVP2,2013-09-11 02:41:00,
2013-09-10 22:46:00,64.3,62.2,30.06,WSW,257,0.0,1.0,93,0.00,,,0.15,0.0,WUHU216DAVISVP2,2013-09-11 02:46:00,
2013-09-10 22:51:00,64.3,62.2,30.06,WSW,257,0.0,1.0,93,0.00,,,0.15,0.0,WUHU216DAVISVP2,2013-09-11 02:51:00,
2013-09-10 22:56:00,64.3,62.2,30.06,WSW,257,0.0,1.0,93,0.00,,,0.15,0.0,WUHU216DAVISVP2,2013-09-11 02:56:00,
2013-09-10 23:01:00,64.3,62.2,30.06,WSW,257,0.0,0.0,93,0.00,,,0.15,0.0,WUHU216DAVISVP2,2013-09-11 03:01:00,
2013-09-10 23:06:00,64.2,62.1,30.07,WSW,257,0.0,1.0,93,0.00,,,0.15,0.0,WUHU216DAVISVP2,2013-09-11 03:06:00,
2013-09-10 23:11:00,64.0,61.9,30.07,WSW,257,0.0,1.0,93,0.00,,,0.15,0.0,WUHU216DAVISVP2,2013-09-11 03:11:00,
2013-09-10 23:16:00,63.9,61.8,30.06,WSW,257,0.0,1.0,93,0.00,,,0.15,0.0,WUHU216DAVISVP2,2013-09-11 03:16:00,
2013-09-10 23:21:00,63.8,61.7,30.06,WSW,257,0.0,1.0,93,0.00,,,0.15,0.0,WUHU216DAVISVP2,2013-09-11 03:21:00,
2013-09-10 23:26:00,63.7,61.6,30.06,WSW,257,0.0,0.0,93,0.00,,,0.15,0.0,WUHU216DAVISVP2,2013-09-11 03:26:00,
2013-09-10 23:31:00,63.6,61.8,30.06,WSW,257,0.0,0.0,94,0.00,,,0.15,0.0,WUHU216DAVISVP2,2013-09-11 03:31:00,
2013-09-10 23:36:00,63.6,61.8,30.06,WSW,257,0.0,0.0,94,0.00,,,0.15,0.0,WUHU216DAVISVP2,2013-09-11 03:36:00,
2013-09-10 23:41:00,63.6,61.8,30.06,WSW,257,0.0,0.0,94,0.00,,,0.15,0.0,WUHU216DAVISVP2,2013-09-11 03:41:00,
2013-09-10 23:46:00,63.6,61.8,30.06,WSW,257,0.0,0.0,94,0.00,,,0.15,0.0,WUHU216DAVISVP2,2013-09-11 03:46:00,
2013-09-10 23:51:00,63.5,61.7,30.06,WSW,257,0.0,0.0,94,0.00,,,0.15,0.0,WUHU216DAVISVP2,2013-09-11 03:51:00,
2013-09-10 23:56:00,63.4,61.6,30.06,WSW,257,0.0,0.0,94,0.00,,,0.15,0.0,WUHU216DAVISVP2,2013-09-11 03:56:00,